Track ONEWEB-0288 now! 10-day predictions ONEWEB-0288 is classified as:
1 49078U 21075D 22146.91667824 -.00015384 00000-0 -42777-1 0 9992 2 49078 87.8731 285.3125 0002175 102.1917 21.2669 13.12591166 1301